Location: Hazelwood
(35.4687°N, 83.0040°W)
Time: 09:52:02
(UTC+00:00)

Tiangong - Visible Passes

Search period start: 08 December 2022 00:00
Search period end: 18 December 2022 00:00
Orbit: 386 x 392 km, 41.5° (Epoch: 08 December)

Date Brightness Start Highest point End Pass type
(mag) Time Alt. Az. Time Alt. Az. Time Alt. Az.
08 Dec 0.7 00:30:55 10° WNW 00:31:42 16° WNW 00:31:42 16° WNW visible
08 Dec -1.6 23:32:43 10° WNW 23:35:47 43° NNE 23:36:27 36° NE visible
10 Dec -1.0 00:11:11 10° WNW 00:13:32 44° W 00:13:32 44° W visible
10 Dec -2.2 23:12:39 10° WNW 23:15:50 71° NNE 23:18:22 15° ESE visible
11 Dec 1.4 00:50:14 10° W 00:50:41 12° WSW 00:50:41 12° WSW visible
11 Dec -0.5 23:51:04 10° W 23:53:58 32° SSW 23:55:38 19° SSE visible
12 Dec -1.6 22:52:06 10° WNW 22:55:15 61° SSW 22:58:22 10° SE visible
13 Dec 0.8 23:30:49 10° W 23:32:57 17° SW 23:35:03 10° S visible
